Wind_Speed
40 40 40 38 32 32 36 35 33 35 30 31 32 33 32 32 29 28 29 28 27 26 25 25 23 24 21 27 31 31 23 25 36 35 44 51 47 44 39 38 37 38 38 38
42 41 38 35 37 38 35 37 36 37 33 35 35 35 35 35 32 31 32 33 32 28 27 26 25 27 23 24 28 33 34 26 20 14 25 42 44 46 36 44 40 40 40 39
38 38 35 37 37 38 38 38 37 30 32 37 36 39 37 37 36 34 33 33 32 31 28 29 28 29 28 27 23 24 24 27 31 26 25 20 28 27 29 42 43 43 43 44
41 39 38 39 39 37 36 32 31 33 32 36 36 40 38 39 37 38 36 35 34 33 32 32 31 29 30 32 26 25 19 18 18 19 21 25 26 28 30 36 43 47 49 47
43 41 39 39 37 34 31 31 30 31 32 37 39 42 31 40 44 40 37 37 37 37 37 36 35 33 29 29 29 26 25 23 23 20 20 24 27 31 39 35 31 25 27 28
45 41 39 39 37 35 35 33 36 36 38 44 41 43 40 35 36 36 40 41 39 37 37 37 37 34 32 31 31 30 29 28 28 26 25 26 23 28 29 33 31 29 31 30
51 46 45 42 42 41 41 39 38 39 45 45 39 40 38 39 30 34 38 38 39 42 40 38 35 34 35 35 33 34 33 31 29 29 29 27 22 25 27 29 30 22 22 24
51 51 51 50 47 45 42 39 40 41 41 39 39 36 37 31 24 28 31 35 42 38 35 34 35 32 31 34 34 34 35 34 32 29 28 24 23 23 22 20 19 20 22 24
52 50 50 47 45 45 41 41 36 38 41 36 40 36 38 23 25 25 33 37 34 33 32 32 29 25 25 28 33 35 36 34 33 30 27 25 23 21 20 23 22 22 23 22
53 51 51 47 45 44 43 35 40 43 44 42 41 38 38 24 26 32 39 34 35 32 30 27 26 25 27 27 26 27 29 31 31 30 30 29 27 26 24 25 25 21 20 19
55 52 55 52 50 48 50 47 44 41 42 40 38 39 29 21 31 32 30 33 32 31 29 27 26 31 31 31 30 29 31 32 31 30 29 29 29 26 25 24 25 20 19 18
55 55 55 54 48 44 46 42 41 42 42 42 37 38 22 22 28 31 30 25 26 27 28 29 27 25 22 23 24 25 26 26 25 26 25 24 25 27 25 22 21 19 17 18
54 58 57 54 52 52 52 46 45 41 40 40 37 33 21 22 27 31 28 26 26 29 29 28 27 26 17 15 18 18 19 23 25 26 26 23 28 21 14 19 19 19 18 17
59 58 58 60 54 50 54 51 49 46 48 42 40 30 23 22 25 29 28 26 24 24 24 24 23 19 17 17 17 18 19 20 23 24 24 23 21 19 20 19 19 18 17 17
52 57 58 55 49 53 51 50 50 46 45 43 37 30 25 24 25 25 28 27 25 24 25 21 21 21 20 19 18 17 18 17 19 21 21 20 20 20 19 19 18 18 17 17
49 51 57 57 53 51 51 49 49 45 42 41 39 33 29 28 31 30 27 26 26 27 27 23 21 19 19 20 21 21 21 19 18 19 20 21 20 19 19 19 19 18 16 15
43 50 56 60 53 50 52 54 50 47 45 43 43 36 32 32 32 33 29 28 28 31 28 24 22 22 22 23 23 22 23 21 20 20 20 21 19 19 19 19 18 15 14 13
43 42 48 58 53 55 56 48 50 49 47 45 37 35 33 32 30 30 31 31 36 33 30 26 24 23 23 23 23 23 22 20 21 20 20 20 19 19 19 18 16 15 14 13
44 40 39 46 54 51 56 50 48 50 48 46 44 39 37 37 34 36 36 40 35 32 31 31 28 26 23 22 22 21 21 21 21 20 20 20 21 20 19 17 16 16 15 14
41 43 43 41 42 52 49 53 48 45 48 44 43 41 40 39 37 34 33 32 33 34 33 30 29 26 22 22 21 21 22 22 22 22 23 23 23 21 20 19 18 17 16 15
45 48 44 44 41 43 46 48 51 51 47 43 42 41 40 40 37 34 35 31 36 37 35 33 30 26 25 23 23 22 22 22 25 25 26 25 24 24 22 21 20 19 18 17
33 33 45 41 44 44 43 41 48 45 45 42 39 36 35 37 38 37 38 34 35 35 37 31 30 29 28 24 21 24 24 25 26 27 26 25 26 25 24 24 23 21 21 20
48 36 40 47 43 43 42 49 50 48 46 41 42 41 36 34 39 42 43 34 33 35 39 35 32 32 30 26 23 22 26 27 26 26 27 27 27 27 25 25 25 24 23 23
50 44 37 40 48 42 46 43 42 39 40 40 35 42 40 38 37 36 42 40 34 34 37 36 34 32 31 30 28 25 30 29 27 27 28 28 28 28 27 26 26 26 26 25
34 44 47 35 38 45 40 37 34 34 31 30 28 36 44 46 46 43 39 38 36 37 36 38 37 35 33 34 33 31 30 29 29 28 28 28 28 29 28 27 27 27 27 26
31 28 26 42 40 37 42 36 32 29 34 33 33 33 33 34 41 47 48 45 40 36 37 37 37 35 35 36 35 35 32 31 30 30 29 28 28 29 29 30 29 28 28 28
Wind_Direction
227 223 223 225 226 227 226 226 231 233 231 234 237 238 240 241 238 239 244 247 248 250 249 253 264 265 271 269 255 249 249 239 246 247 230 235 229 230 233 239 242 249 256 263
225 224 222 221 221 223 223 225 226 227 224 228 230 234 233 233 235 236 242 247 248 246 248 251 261 262 263 269 264 260 255 254 245 255 258 248 266 235 251 248 244 249 257 263
228 227 225 224 224 224 225 225 227 228 229 230 227 231 225 227 230 235 239 244 248 251 251 254 260 261 264 269 269 252 257 267 257 252 257 257 262 265 261 250 248 250 255 258
225 223 222 222 224 225 226 227 228 227 224 232 230 234 229 227 229 232 237 243 249 255 256 257 254 255 257 263 268 264 263 269 276 275 266 266 268 265 263 264 260 261 256 265
227 225 224 224 226 225 225 226 226 224 224 227 230 231 234 228 231 231 235 241 245 248 253 257 260 260 261 262 261 263 266 269 274 278 278 279 274 266 262 254 259 265 273 276
224 221 221 222 223 224 222 219 223 221 223 228 226 231 231 239 240 238 238 241 244 248 250 252 256 260 258 255 255 254 256 263 271 275 275 277 277 275 277 273 269 264 271 275
222 220 219 219 222 218 219 217 219 221 224 231 232 232 234 240 234 238 240 244 246 245 249 254 257 258 256 250 248 252 256 260 264 269 273 272 268 266 264 267 272 269 273 275
225 222 221 220 221 228 227 224 230 229 235 240 242 244 241 242 237 237 240 240 243 247 250 255 261 260 255 246 248 249 250 254 258 260 263 263 262 260 261 259 256 258 264 270
222 225 225 224 222 225 224 226 230 232 237 240 248 244 248 236 238 229 234 236 242 242 245 252 255 251 246 245 245 246 249 251 254 259 258 259 258 257 259 261 254 257 264 261
224 223 225 223 221 224 228 230 226 232 235 237 242 244 247 236 229 236 238 244 246 246 249 249 251 252 246 246 245 249 252 253 254 255 257 260 260 254 251 256 257 253 251 259
219 220 225 222 217 220 224 222 222 231 240 243 244 247 249 234 238 241 243 244 247 247 241 243 240 242 248 254 254 249 247 249 251 253 256 258 252 248 253 250 251 242 248 267
220 218 222 222 220 220 226 229 234 239 238 237 240 249 245 232 236 237 236 232 240 249 247 246 249 248 258 257 249 248 248 249 246 246 251 255 246 244 244 246 239 250 264 266
212 218 219 218 216 215 222 222 225 229 238 239 244 247 248 237 235 232 227 228 240 245 246 251 255 262 254 249 240 241 238 241 244 244 243 244 243 244 237 234 245 255 257 256
219 216 219 219 223 223 219 219 222 224 230 231 234 235 225 228 223 229 230 229 234 236 233 238 241 232 240 230 225 226 234 242 243 241 239 240 247 229 227 238 248 252 253 259
220 218 219 216 215 220 221 223 226 224 230 233 237 230 222 212 214 222 230 221 224 227 226 219 216 220 222 222 227 233 238 242 237 235 234 230 221 225 236 244 246 248 254 254
219 216 218 220 216 220 222 221 223 223 227 231 234 228 214 210 213 219 224 226 221 227 231 222 222 225 231 238 241 240 237 236 227 221 221 220 224 233 238 237 243 248 247 246
217 218 216 218 215 217 221 218 221 221 223 225 228 226 209 212 213 219 221 229 230 229 232 228 232 239 246 247 241 235 231 228 225 222 221 227 230 231 231 237 240 242 244 244
214 222 222 219 217 220 219 219 221 221 221 222 224 223 211 216 220 223 219 225 229 232 234 232 234 238 243 244 239 234 230 226 227 228 228 233 230 228 234 237 240 244 243 243
212 219 220 221 221 220 224 218 222 221 222 224 226 226 217 222 222 222 222 226 233 233 233 231 232 236 242 242 234 229 228 228 231 233 233 231 228 229 235 238 243 243 242 241
216 216 216 219 218 218 219 225 222 223 227 229 229 228 225 226 224 226 228 232 233 234 231 230 231 234 238 240 236 230 229 231 232 231 232 230 227 229 232 237 241 241 243 246
205 216 220 216 218 215 219 224 223 225 229 231 230 229 225 223 225 234 237 228 225 229 232 228 227 228 231 234 232 226 229 233 235 233 233 231 229 231 233 237 241 243 247 253
193 202 213 220 219 219 215 219 221 223 228 232 230 229 230 226 229 230 237 231 228 227 234 234 229 229 231 232 234 233 228 231 235 237 238 234 231 234 235 238 243 246 250 256
228 194 198 214 220 222 222 225 225 224 228 234 231 227 224 221 223 227 233 234 228 226 230 233 228 229 230 228 230 230 229 230 233 237 239 237 235 237 240 242 245 248 253 259
232 215 188 201 220 225 227 228 227 225 227 228 225 223 219 220 223 223 231 234 234 232 231 233 230 231 231 234 231 230 235 232 231 235 240 241 239 240 243 245 248 252 256 261
225 230 209 195 204 216 219 223 224 218 214 212 210 211 213 211 216 219 223 227 228 230 230 233 232 229 226 227 229 230 236 240 236 232 238 243 244 245 246 249 251 254 258 262
211 204 212 226 201 202 221 221 222 217 208 210 210 206 208 216 221 223 225 228 229 229 232 234 234 231 228 229 231 233 234 238 239 237 236 239 242 245 246 249 252 254 258 263
Height
5716 5720 5725 5731 5738 5742 5743 5748 5752 5757 5760 5764 5767 5768 5770 5772 5775 5778 5780 5783 5786 5789 5791 5792 5793 5795 5796 5798 5798 5800 5802 5803 5805 5807 5810 5813 5814 5816 5818 5820 5822 5823 5824 5825
5707 5712 5718 5724 5727 5732 5736 5739 5744 5746 5753 5755 5759 5761 5763 5766 5769 5771 5774 5776 5779 5784 5786 5789 5790 5791 5793 5794 5793 5794 5795 5797 5798 5800 5802 5806 5807 5808 5812 5814 5815 5816 5818 5818
5699 5707 5711 5715 5720 5724 5728 5732 5736 5744 5747 5748 5751 5752 5756 5760 5762 5765 5768 5771 5774 5778 5781 5783 5785 5786 5787 5789 5789 5789 5790 5792 5794 5796 5799 5799 5802 5804 5804 5806 5808 5809 5809 5810
5689 5696 5701 5706 5711 5717 5721 5728 5731 5734 5739 5742 5746 5746 5749 5753 5757 5759 5762 5766 5769 5771 5774 5776 5778 5780 5782 5784 5785 5786 5789 5790 5790 5792 5793 5795 5796 5797 5797 5800 5801 5801 5801 5803
5683 5689 5694 5699 5706 5711 5716 5720 5724 5727 5730 5733 5736 5738 5746 5746 5746 5753 5759 5761 5762 5763 5766 5769 5771 5775 5777 5779 5780 5781 5781 5784 5786 5788 5789 5790 5791 5791 5793 5793 5795 5795 5796 5796
5670 5679 5684 5691 5697 5703 5705 5711 5714 5718 5721 5720 5725 5730 5737 5739 5744 5749 5750 5751 5754 5757 5758 5761 5764 5768 5771 5772 5774 5776 5777 5779 5780 5782 5784 5785 5785 5785 5786 5787 5787 5787 5788 5789
5660 5669 5675 5681 5686 5691 5695 5699 5704 5708 5708 5711 5718 5722 5731 5730 5739 5740 5742 5746 5747 5747 5750 5754 5757 5760 5762 5764 5766 5769 5771 5773 5775 5776 5778 5778 5778 5780 5779 5780 5781 5780 5782 5783
5653 5659 5664 5671 5677 5684 5690 5695 5699 5703 5706 5710 5713 5717 5720 5727 5733 5734 5736 5738 5737 5741 5745 5747 5750 5751 5754 5756 5759 5762 5764 5765 5768 5769 5772 5773 5773 5772 5774 5774 5775 5777 5778 5778
5643 5651 5657 5665 5671 5676 5683 5686 5697 5696 5699 5703 5706 5711 5712 5723 5724 5726 5727 5727 5732 5734 5738 5740 5741 5743 5745 5749 5751 5754 5757 5759 5761 5763 5765 5767 5767 5768 5769 5771 5771 5771 5772 5773
5633 5641 5648 5655 5662 5668 5674 5687 5686 5687 5690 5694 5698 5702 5705 5715 5717 5717 5717 5723 5726 5729 5732 5734 5736 5738 5740 5742 5745 5748 5750 5753 5755 5757 5759 5761 5762 5763 5764 5767 5767 5766 5768 5769
5622 5631 5636 5641 5652 5659 5661 5667 5674 5681 5684 5688 5693 5696 5703 5708 5708 5710 5713 5716 5719 5722 5725 5727 5729 5731 5734 5737 5739 5741 5744 5746 5749 5751 5752 5754 5756 5757 5758 5760 5762 5762 5762 5761
5615 5619 5624 5637 5645 5650 5655 5663 5671 5674 5679 5682 5687 5691 5699 5701 5702 5704 5706 5710 5713 5716 5719 5721 5723 5727 5730 5731 5732 5734 5737 5740 5742 5745 5746 5747 5748 5750 5752 5755 5757 5758 5757 5757
5602 5606 5616 5623 5631 5638 5644 5652 5658 5665 5670 5674 5680 5686 5692 5695 5696 5698 5701 5705 5708 5710 5713 5716 5718 5722 5725 5726 5727 5730 5732 5734 5737 5739 5741 5743 5743 5744 5747 5751 5753 5754 5754 5754
5589 5597 5604 5615 5628 5633 5634 5641 5647 5654 5658 5666 5670 5680 5686 5689 5690 5692 5696 5700 5702 5705 5708 5710 5713 5716 5719 5722 5723 5725 5728 5729 5732 5734 5736 5738 5739 5742 5745 5747 5749 5749 5750 5750
5578 5587 5598 5607 5614 5619 5627 5634 5639 5646 5654 5658 5667 5673 5680 5683 5685 5687 5689 5694 5698 5701 5703 5705 5708 5711 5714 5717 5719 5722 5724 5725 5727 5729 5731 5734 5736 5739 5741 5743 5744 5745 5746 5746
5570 5580 5587 5593 5603 5609 5616 5622 5630 5640 5646 5652 5657 5665 5672 5676 5677 5680 5684 5687 5692 5695 5698 5701 5704 5708 5711 5713 5715 5717 5719 5721 5723 5725 5727 5731 5733 5735 5737 5739 5740 5741 5742 5742
5562 5568 5575 5583 5595 5601 5600 5613 5622 5629 5636 5643 5647 5656 5664 5667 5671 5675 5679 5682 5686 5688 5692 5697 5700 5703 5706 5708 5709 5712 5713 5717 5719 5721 5724 5727 5729 5731 5733 5734 5736 5736 5737 5737
5553 5560 5568 5576 5583 5583 5601 5606 5613 5619 5626 5631 5641 5647 5655 5660 5665 5669 5673 5675 5677 5683 5688 5693 5695 5698 5700 5702 5705 5706 5710 5712 5715 5717 5720 5722 5724 5726 5728 5730 5731 5732 5733 5733
5547 5554 5560 5566 5574 5586 5589 5598 5604 5610 5618 5624 5631 5639 5647 5652 5657 5661 5665 5667 5673 5679 5682 5685 5688 5692 5695 5698 5700 5703 5705 5708 5711 5713 5715 5717 5719 5721 5724 5725 5726 5727 5728 5729
5542 5546 5552 5559 5566 5574 5586 5590 5598 5604 5607 5616 5624 5632 5639 5644 5649 5655 5660 5665 5669 5672 5675 5680 5683 5686 5690 5692 5695 5698 5701 5704 5706 5708 5710 5712 5714 5717 5718 5720 5722 5723 5724 5725
5533 5538 5545 5552 5559 5567 5572 5579 5588 5595 5605 5609 5616 5623 5630 5636 5644 5650 5651 5655 5659 5663 5667 5672 5678 5682 5684 5687 5690 5692 5696 5699 5700 5702 5703 5706 5709 5711 5713 5715 5717 5718 5720 5721
5525 5529 5539 5546 5553 5559 5564 5570 5577 5586 5592 5601 5609 5615 5622 5630 5633 5639 5641 5647 5651 5657 5661 5667 5672 5675 5677 5681 5684 5687 5690 5691 5693 5696 5699 5701 5704 5706 5708 5709 5711 5713 5714 5715
5517 5522 5530 5538 5544 5549 5555 5560 5568 5577 5584 5591 5600 5607 5614 5619 5624 5629 5633 5639 5644 5648 5652 5658 5664 5668 5672 5676 5679 5681 5682 5683 5688 5690 5693 5696 5699 5701 5702 5704 5706 5707 5708 5709
5507 5515 5523 5529 5536 5541 5547 5553 5561 5569 5575 5582 5589 5597 5604 5610 5616 5621 5625 5631 5636 5640 5645 5650 5655 5661 5666 5670 5672 5674 5673 5677 5681 5684 5687 5690 5693 5694 5696 5698 5700 5701 5702 5703
5502 5509 5515 5521 5527 5533 5539 5547 5553 5560 5567 5574 5580 5587 5593 5599 5605 5612 5616 5622 5627 5631 5636 5640 5646 5652 5657 5660 5663 5665 5668 5671 5674 5677 5680 5683 5686 5688 5690 5692 5693 5695 5696 5696
5494 5503 5508 5511 5519 5525 5532 5540 5547 5553 5558 5565 5573 5578 5584 5590 5597 5603 5608 5613 5619 5624 5628 5632 5636 5641 5647 5652 5656 5658 5662 5664 5667 5670 5673 5676 5679 5681 5683 5685 5686 5687 5688 5689